Location: Grange Rosano
(44.4500°N, 6.9667°E)
Time: 19:39:21
(UTC+00:00)

NPP - Pass Details

Date: 26 May 2022
Orbit: 826 x 828 km, 98.7° (Epoch: 01 July)

Event Time Altitude Azimuth Distance (km) Brightness Sun altitude
Rises 01:49:40 0° 10° (N) 3,378 8.0 -17.0°
Reaches altitude 10° 01:52:03 10° 6° (N) 2,440 7.0 -16.8°
Maximum altitude 01:57:19 56° 289° (WNW) 983 3.9 -16.2°
Enters shadow 02:00:19 25° 222° (SW) 1,610 4.5 -15.9°
